TITAN 3C TRANSTAGE DEB, 26049

Orbit data source: Space-Track

TITAN 3C TRANSTAGE DEB, 26049 is space debris in HEO originally from a launch on Tue, 21 Dec 1965 UTC launched from the Air Force Eastern Test Range (AFETR). Debris objects in space refer to the collection of defunct objects orbiting the Earth. Examples of debris include non-operational satellites, rocket bodies, and fragments generated from explosions, collisions, or faulty payload assembly.

Loading next visibility...
Identifier
26049, 1965-108AH
Orbit
HEO
Last TLE update
3 days ago
Origin
Manufacturer
Unknown
Mission
Spacecraft
Bus & Motor
Unknown
Mass
Unknown
Launch date (UTC)
1965-12-21 (60 years ago)
Launch vehicle
Unknown
Launch site
Air Force Eastern Test Range (AFETR)
Object type
Payload
Rocket body
Debris
Shape & HBR
Unknown
Radar Cross Section
Small (<0.1 m²)

Expand to show TLE details & history

TLE from 3 days ago
0 TITAN 3C TRANSTAGE DEB
1 26049U 65108AH  25179.84305849  .00009333  00000-0  82563-2 0  9990
2 26049  27.2201 262.5908 4815601 231.0731  75.2541  5.74822707524143
Epoch: 2025-06-28T20:14Z
TLE epoch observation values (Epoch: 2025-06-28T20:14:00.253Z)
Latitude
0.00006°
Longitude
41.93396°
Altitude
8,129.363 km
Speed
4.968 km/s
True Right ascension
17h 30m 26s
True Declination
0° 00' 00"
Sunlit
Object was in daylight at epoch
Visualization orbit readout
Latitude
-6.01076°
Longitude
27.05866°
Altitude
5,803.38 km
Speed
5.93 km/s
Apparent Right ascension
15h 00m 47s
Apparent Declination
-22° 43' 59"
Sunlit
Object is in daylight
Visualization observer readout
Local Sidereal Time
22:15:04
Azimuth
262.965° W
Elevation
-28.247°
Doppler factor
1
Orbital elements
Apogee altitude
13,129.797 km
Perigee altitude
448.243 km
Semi-major axis
13,167.157 km
Eccentricity
0.48156
Inclination
27.2201°
RAAN
262.5908°
Arg. of periapsis
231.0731°
True anomaly
Unknown
Mean anomaly
75.2541°
Eccentric anomaly
Unknown
Mean motion
1.4365 °/min
Orbital period
250.61 mins
BSTAR
0.0082563
Loading maneuver chart data...
Loading SW <> Apogee altitude chart data...

TITAN 3C TRANSTAGE DEB Visibility forecast

Observer location: undefined°, undefined°

Span
Click to sort rows by Start time (UTC) header in descending order
Start Az.
Max El. time (UTC)
Max El. Az.
Max El.
End time (UTC)
End Az.
147 mins2025-07-01 11:18:36.144Z259.712° W2025-07-01 13:16:36.144Z201.028° SSW42.042°2025-07-01 13:45:36.144Z125.357° SE
19 mins2025-07-01 17:39:36.144Z267.485° W2025-07-01 17:50:36.144Z249.47° W12.713°2025-07-01 17:58:36.144Z225.868° WSW
99 mins2025-07-02 03:21:36.144Z144.485° SSE2025-07-02 03:58:36.144Z108.456° ESE17.78°2025-07-02 05:00:36.144Z81.112° E
166 mins2025-07-02 07:36:36.144Z224.272° SW2025-07-02 09:07:36.144Z155.851° SSE42.264°2025-07-02 10:22:36.144Z93.947° ESE
|